Regional Weather Roundup
Issued by NWS Goodland, KS

Home | Current Version | Previous Version | Text Only | Print | Product List | Glossary Off
Versions: 1 2 3 4 5 6 7 8 9 10 11 12 13 14 15 16 17 18 19 20 21 22 23 24 25 26 27 28 29 30 31 32 33 34 35 36 37 38 39 40 41 42 43 44 45 46 47 48 49 50

000
ASUS43 KGLD 260659
RWRGLD

GOODLAND FORECAST AREA HOURLY WEATHER ROUNDUP
NATIONAL WEATHER SERVICE GOODLAND KS
100 AM MDT SAT JUL 26 2014

...OFFICIAL OBSERVATIONS...

CITY           SKY/WX    TMP DP  RH WIND       PRES   REMARKS
GOODLAND KS    CLOUDY    69  63  81 CALM      29.96F
HILL CITY KS   CLOUDY    82  68  62 W25G44    29.94R
IMPERIAL NEB   CLEAR     73  64  73 S9        29.92S
MCCOOK NEB     MOCLDY    71  68  90 SW8       29.91R
AKRON CO       PTCLDY    73  50  44 E3        30.04R
BURLINGTON CO  CLOUDY    68  60  75 S7        30.00F
LIMON CO       CLEAR     60  53  77 N6        30.11R
$$

...UNOFFICIAL OBSERVATIONS...

CITY           SKY/WX    TMP DP  RH WIND       PRES   REMARKS
COLBY KS       PTCLDY    72  66  83 E5        29.95F
GOVE KS          N/A     73  32  22 MISG        N/A
NORTON KS      CLEAR     73  66  78 NW5       29.90R
SHARON SPRINGS   N/A     71  63  75 CALM        N/A
TRENTON NEB      N/A     70  32  24 CALM        N/A
KIT CARSON CO    N/A     70  64  81 CALM        N/A
YUMA CO          N/A     70  60  70 CALM        N/A
$$


USA.gov is the U.S. government's official web portal to all federal, state and local government web resources and services.